STARLINK-1777, 47122

Orbit data source: Space-Track

STARLINK-1777, 47122 is a payload satellite owned by SpaceX/Seattle (US) in LEO that was launched on Wed, 25 Nov 2020 UTC via an FALCON 9 launch vehicle from the Air Force Eastern Test Range (AFETR). Payload-class satellites include a variety of spacecraft equipped with specific instruments for various scientific and technological missions. These include communications satellites like Starlink; space stations such as the ISS; scientific satellites like the Hubble; Earth observation satellites from companies like Planet Labs, Umbra, and HawkEye 360; GPS; miniature CubeSats for education and research; and military/defense satellites.

Loading next visibility...
Identifier
47122, 2020-088A
Orbit
LEO
Country
Flag of USUS
Related business
Manufacturer
SpaceX/Seattle
Mission
Partially operational Commercial Communications
Bus & Motor
STARLINK, Unknown motor
Mass
260 kg wet, ~248 kg dry
Launch date (UTC)
2020-11-25 (6 years ago)
Launch vehicle
FALCON 9
Launch site
Air Force Eastern Test Range (AFETR)
Object type
Payload
Rocket body
Debris
Shape & HBR
Box + 1 Pan, 10.1 m
Radar Cross Section
13.562 m², Large (>1 m²)

Expand to show TLE details & history
Last TLE update: 2 days ago

TLE from 2 days ago
0 STARLINK-1777
1 47122U 20088A   26171.50003471  .00057214  00000-0  42873-3 0  9997
2 47122  53.0437 141.6603 0001292  99.0439 261.1205 15.72102593  5961
Epoch: 2026-06-20T12:00Z
TLE epoch observation values (Epoch: 2026-06-20T12:00:02.998Z)
Latitude
0.03858°
Longitude
52.9629°
Altitude
353.921 km
Speed
7.698 km/s
True Right ascension
09h 26m 45s
True Declination
0° 02' 18"
Sunlit
Object was in daylight at epoch
Visualization orbit readout
Latitude
Unknown
Longitude
Unknown
Altitude
Unknown
Speed
Unknown
Apparent Right ascension
Unknown
Apparent Declination
Unknown
Sunlit
N/A
Visualization observer readout
Local Sidereal Time
00:39:31
Azimuth
Unknown
Elevation
Unknown
Doppler factor
Unknown
Orbital elements
Apogee altitude
354.039 km
Perigee altitude
352.299 km
Semi-major axis
6,731.306 km
Eccentricity
0.00013
Inclination
53.0437°
RAAN
141.6603°
Arg. of periapsis
99.0439°
True anomaly
261.10587°
Mean anomaly
261.1205°
Eccentric anomaly
261.11319°
Mean motion
3.93001 °/min
Orbital period
91.6 mins
BSTAR
0.00042873
Loading maneuver chart data...
Computing Atmospheric mass density...

Documentation

Showing up to 5 results
|